Location: Hac?musa Deresi
(39.1694°N, 32.2508°E)
Time: 14:42:16
(UTC+00:00)

Cosmos 1821 Rocket - Pass Details

Date: 22 April 2026
Orbit: 945 x 1002 km, 82.9° (Epoch: 11 May)

Event Time Altitude Azimuth Distance (km) Brightness Sun altitude
Rises 17:47:01 0° 188° (S) 3,653 6.8 -13.7°
Reaches altitude 10° 17:49:30 10° 190° (S) 2,718 6.1 -14.1°
Maximum altitude 17:55:45 80° 277° (W) 1,006 4.1 -15.1°
Drops below altitude 10° 18:02:08 10° 5° (N) 2,771 6.7 -16.2°
Sets 18:04:41 0° 6° (N) 3,729 7.4 -16.6°
